x

Culdrose (03809) Weather Station

7:00 - Sun 1st Feb 2015 All times are GMT.

  • Wind
    24mph, 46mph gusts
  • Ar Temp 40°f
  • Sea Pressure 1006mb
  • Culdrose
  • Culdrose

More Historic Weather Station data

Upgrade to MSW Pro to gain access to the past 30 days of data for over 8000 Wavebouys and Weather Stations around the globe.

Join Pro

Comparision Forecast

View Surf forecast
   
Dom 02/01 7:00 24 46 mph 1006mb 40f
6:00 22 45 mph 1006mb 40f
5:00 25 44 mph 1005mb 40f
4:00 24 47 mph 1005mb 40f
3:00 22 40 mph 1005mb 40f
2:00 22 44 mph 1005mb 40f
1:00 19 45 mph 1005mb 40f
12:00 21 43 mph 1005mb 40f
Sáb 01/31 11:00 22 43 mph 1004mb 40f
10:00 23 43 mph 1003mb 40f
9:00 21 46 mph 1003mb 41f
8:00 25 46 mph 1002mb 42f
7:00 25 47 mph 1001mb 41f
6:00 25 45 mph 1000mb 42f
5:00 24 45 mph 999mb 42f
4:00 24 46 mph 998mb 42f
3:00 25 48 mph 996mb 43f
2:00 25 49 mph 995mb 42f
1:00 25 48 mph 995mb 42f
12:00 28 47 mph 993mb 43f
11:00 23 45 mph 992mb 42f
10:00 23 44 mph 991mb 41f
9:00 21 43 mph 990mb 41f
8:00 19 40 mph 989mb 40f
7:00 21 48 mph 989mb 41f
6:00 21 41 mph 988mb 41f
5:00 21 40 mph 988mb 38f
4:00 24 40 mph 987mb 38f
3:00 18 40 mph 987mb 40f
2:00 19 36 mph 987mb 41f
1:00 18 31 mph 987mb 41f
12:00 9 29 mph 987mb 40f
Sex 01/30 11:00 11 32 mph 986mb 39f
10:00 11
mph
986mb 41f
9:00 8
mph
986mb 40f
8:00 10
mph
986mb 41f
7:00 8
mph
985mb 41f
6:00 9
mph
985mb 42f
5:00 11 29 mph 985mb 43f
4:00 11 30 mph 985mb 45f
3:00 15 31 mph 986mb 45f
2:00 16 36 mph 986mb 45f
1:00 16 37 mph 986mb 46f
12:00 19 37 mph 987mb 45f
11:00 22 38 mph 987mb 45f
10:00 22 43 mph 987mb 44f
9:00 25 45 mph 987mb 44f
8:00 23 48 mph 987mb 44f
7:00 28 48 mph 987mb 43f
6:00 25 61 mph 986mb 43f
5:00 18 60 mph 986mb 40f
4:00 28 54 mph 985mb 45f
3:00 25 49 mph 986mb 44f
2:00 28 51 mph 987mb 43f
1:00 24 44 mph 987mb 43f
12:00 16 34 mph 988mb 41f
Qui 01/29 11:00 21 38 mph 989mb 41f
10:00 18 37 mph 989mb 40f
9:00 24 44 mph 989mb 40f
8:00 23 46 mph 988mb 40f
7:00 17 38 mph 987mb 39f
6:00 21 46 mph 987mb 41f
5:00 22 48 mph 986mb 42f
4:00 29 51 mph 986mb 43f
3:00 39 56 mph 986mb 42f
2:00 25 47 mph 986mb 42f
1:00 31 54 mph 987mb 46f
12:00 24 41 mph 989mb 45f
11:00 18 39 mph 990mb 44f
10:00 15 51 mph 991mb 44f
9:00 21 43 mph 993mb 41f
8:00 24 38 mph 994mb 44f
7:00 16 44 mph 995mb 43f
6:00 21 34 mph 997mb 44f
5:00 21 39 mph 998mb 43f
4:00 17 37 mph 1000mb 43f
3:00 11 29 mph 1002mb 41f
2:00 17 41 mph 1003mb 40f
1:00 13 40 mph 1004mb 40f
12:00 21 37 mph 1005mb 41f
Qua 01/28 11:00 17 31 mph 1006mb 42f
10:00 17 40 mph 1006mb 41f
9:00 16 36 mph 1007mb 42f
8:00 16 29 mph 1008mb 41f
7:00 13
mph
1009mb 41f
6:00 17 39 mph 1010mb 40f
5:00 15 45 mph 1010mb 42f
4:00 18 37 mph 1010mb 42f
3:00 17 37 mph 1010mb 44f
2:00 24 44 mph 1011mb 45f
1:00 21 55 mph 1011mb 44f
12:00 29 53 mph 1011mb 47f
11:00 25 46 mph 1010mb 49f
10:00 23 41 mph 1010mb 50f
9:00 21 43 mph 1011mb 50f
8:00 25 41 mph 1012mb 50f